www.pogodaiklimat.ru

Погода и климат >> Архив погоды >> Эстония >> Вилсанди


ПОГОДА в Вилсанди

  • Прогноз погоды в Вилсанди
  • Монитор погоды в Вилсанди

АРХИВ ПОГОДЫ в Вилсанди

Время (UTC), дата Ветер
(напр.,м/с)
 
Видим.   Явления Облачность Т
(С)
Тd
(С)
f
(%)
Тe
(С)
Тes
(С)
Комфортность P
(гПа)
Po
(гПа)
Тmin
(С)
Tmax
(С)
R
(мм)
R24
(мм)
S
(см)
11 12.01 СЗ 6 20 км н/о +2.6 -0.2 82 -3 -3 997.5 996.8
10 12.01 СЗ 5 20 км н/о +2.9 -0.8 77 -2 -2 997.7 997.0
12 12.01 14 км н/о +2.7 -0.5 79 -3 -3 997.1 996.4
13 12.01 З 6 20 км н/о +2.6 -1.2 76 -3 -3 996.7 996.0
14 12.01 СЗ 7 20 км н/о +2.5 -1.2 77 -4 -4 996.6 995.9
15 12.01 З 7-9
{10}
20 км {ливн. осадки} 9/4 500 м
[Cb calv Ci fib]
+2.3 -1.6 75 -4 -4 996.3 995.6 +2.3 +3.1
17 12.01 СЗ 6 20 км н/о +1.9 -1.4 79 -4 -4 995.9 995.2
16 12.01 СЗ 6 20 км н/о +2.1 -1.7 76 -4 -4 996.0 995.3
18 12.01 СЗ 5 20 км {ливн. осадки} 9/9 600 м
[Sc Ci fib]
+2.0 -1.2 79 -3 -3 995.9 995.2 +1.8 +3.0
19 12.01 СЗ 4 20 км н/о +1.9 -1.1 80 -3 -3 995.5 994.8
20 12.01 СЗ 4 20 км н/о +1.7 -1.0 82 -3 -3 995.1 994.4
21 12.01 СЗ 3 20 км 9/3 700 м
[Sc Ac trans Ci fib]
+1.6 -1.3 81 -3 -3 994.7 993.9 +1.5 +3.0
23 12.01 СЗ 2 20 км н/о +1.5 -1.0 83 -2 -2 994.2 993.5
22 12.01 СЗ 2 20 км н/о +1.5 -1.3 82 -2 -2 994.3 993.6
00 13.01 ЮВ 2 20 км 10/4 600 м
[Sc Ac und]
-0.7 -1.9 92 -5 -5 993.9 993.2
01 13.01 ЮВ 2 20 км н/о -0.5 -1.2 95 -4 -4 993.6 992.8
02 13.01 Ю 2 20 км н/о +0.5 -0.5 93 -3 -3 992.9 992.2
03 13.01 З 3 20 км 9/3 660 м
[Sc Ac trans]
+2.5 -1.4 75 -1 -1 992.2 991.5 -0.7 +2.5
05 13.01 ЮЗ 3 20 км н/о +2.5 -0.7 79 -2 -2 990.7 990.0
04 13.01 З 3 20 км н/о +2.6 -1.3 75 -1 -1 991.6 990.9
06 13.01 ЮЗ 4 20 км н/о +2.4 -0.9 79 -2 -2 990.0 989.3 -0.7 +2.6
07 13.01 ЮЗ 4 20 км н/о +2.1 -0.4 84 -3 -3 989.3 988.6
08 13.01 н/о
09 13.01 ЮЗ 5 20 км 9/6 450 м
[Sc Ac trans Ci fib]
+2.3 -0.2 84 -3 -3 987.5 986.8 -0.7 +2.6
11 13.01 Ю 6 20 км н/о +2.3 0.0 85 -4 -4 984.7 984.0
10 13.01 ЮЗ 5 20 км н/о +2.3 -0.2 84 -3 -3 986.2 985.5
12 13.01 20 км н/о +1.3 +0.1 92 -4 -4 983.2 982.5
13 13.01 Ю 5 20 км н/о +0.5 -0.4 94 -6 -6 981.7 981.0
14 13.01 ЮВ 4 20 км н/о +0.2 -0.6 94 -5 -5 980.3 979.6
15 13.01 ЮВ 5
{8}
8000 м слаб. снег 10/10 150 м
[Frnb Ns]
-0.1 -0.7 96 -6 -6 979.0 978.3 -0.1 +2.6
17 13.01 ЮЗ 8 20 км н/о +1.3 -0.1 90 -6 -6 976.6 975.9 0.1
16 13.01 ЮЗ 6 20 км н/о +0.9 +0.4 96 -6 -6 977.7 977.0 0.2
18 13.01 Ю 6 13 км слаб. снег 10// 300 м
[Frnb As op]
+1.1 -0.7 88 -5 -5 975.7 975.0 -0.1 +2.5
19 13.01 Ю 5 18 км н/о +1.1 -0.1 92 -5 -5 975.0 974.3
20 13.01 Ю 3 3200 м н/о +0.4 -0.1 96 -4 -4 974.3 973.6 0.6
21 13.01 Ю 4 10 км слаб. снег 10/10 120 м
[Frnb Ns]
+0.5 +0.2 98 -5 -5 973.6 972.9 -0.1 +2.5 1
23 13.01 В 1 20 км н/о +0.1 -0.2 98 -2 -2 972.2 971.5 0.2
22 13.01 ЮВ 1 5000 м н/о +0.2 -0.2 97 -2 -2 972.8 972.1 0.5
00 14.01 ЮЗ 1 6000 м слаб. снег 10// 100 м
[Frnb As op]
+0.1 -0.1 99 -2 -2 971.9 971.2
01 14.01 С 5 8000 м н/о +0.6 +0.2 97 -6 -6 971.8 971.1 0.3
02 14.01 СЗ 6 12 км н/о +0.9 +0.3 96 -6 -6 971.7 971.0 0.5
03 14.01 СЗ 7-9
{10}
20 км слаб. снег 10/10 150 м
[Frnb Ns]
+1.3 0.0 91 -6 -6 971.5 970.8 -0.1 +1.7 1
05 14.01 С 14 14 км н/о +0.6 -0.3 94 -9 -9 971.6 970.9 1
04 14.01 СЗ 9 5000 м н/о +0.4 -0.3 95 -8 -8 971.6 970.9
06 14.01 С 14 5000 м слаб. снег 10// 300 м
[Frnb As op]
+0.1 -1.1 92 -9 -9 972.4 971.7 +0.1 +1.3 0.7 1
07 14.01 С 15 4100 м н/о -0.1 -1.2 92 -10 -10 973.4 972.7 0.5
08 14.01 н/о
09 14.01 СЗ 14-18
{19}
20 км {снег} 9/9 900 м
[Sc Ac trans]
+0.8 -3.5 73 -8 -8 974.9 974.2 -0.3 +1.3 0.5
11 14.01 С 13 20 км н/о +0.6 -5.6 63 -8 -8 976.5 975.8
10 14.01 С 13 20 км н/о +0.7 -3.8 72 -8 -8 975.9 975.2
12 14.01 С 13 20 км н/о +0.6 -4.2 70 -8 -8 977.4 976.7
13 14.01 СЗ 11 20 км н/о +0.6 -3.6 73 -7 -7 978.3 977.6
14 14.01 СЗ 9 20 км н/о +0.1 -4.2 73 -7 -7 979.2 978.5
15 14.01 СЗ 9-13
{16}
20 км слаб. снег 9/9 800 м
[Sc]
+0.1 -5.0 69 -7 -7 980.1 979.4 -0.3 +1.3
17 14.01 СЗ 6 20 км н/о -0.6 -6.1 66 -7 -7 981.2 980.5
16 14.01 СЗ 9 20 км н/о -0.4 -5.0 71 -8 -8 980.9 980.2
18 14.01 СЗ 10 2100 м н/о -1.5 -3.1 89 -10 -10 981.6 980.9 -2.1 +1.0
19 14.01 С 6 2600 м н/о -1.4 -2.3 94 -9 -9 981.9 981.2 1
20 14.01 СЗ 12 20 км н/о +0.1 -4.4 72 -8 -8 982.3 981.6 0.1
21 14.01 СЗ 12-16
{16}
20 км в посл. час ливневой снег 9/9 500 м
[Cb calv]
0.0 -4.8 70 -9 -9 982.7 982.0 -2.1 +1.0 1
23 14.01 СЗ 13 1100 м н/о -1.6 -4.0 84 -11 -11 983.2 982.5
22 14.01 СЗ 12 20 км н/о -0.1 -5.8 65 -9 -9 982.8 982.1
00 15.01 СЗ 11 20 км н/о -1.1 -4.0 81 -10 -10 983.2 982.5
01 15.01 СЗ 12 1000 м н/о -1.7 -3.6 87 -11 -11 983.3 982.6
02 15.01 СЗ 11 900 м н/о -1.2 -2.2 93 -10 -10 983.3 982.6 0.7
03 15.01 СЗ 12-18
{20}
300 м слаб. снег {метель} ?/? -1.5 -2.4 94 -11 -11 983.2 982.5 -2.3 +0.3 2
05 15.01 С 9 20 км н/о -0.3 -3.6 78 -8 -8 983.7 982.9 0.3
04 15.01 СЗ 10 3100 м н/о -1.1 -2.9 88 -10 -10 982.8 982.1 1
06 15.01 С 12 2400 м н/о +0.1 -4.0 74 -8 -8 985.0 984.3 -2.3 +0.3
07 15.01 20 км н/о -0.2 -5.8 66 986.8 986.1 0.3
08 15.01 н/о
09 15.01 С 9-11
{16}
1800 м слаб. снег {метель} 10/10 360 м
[Frnb Ns]
-0.1 -1.7 89 -8 -8 988.7 988.0 -2.3 +0.4 0.3
11 15.01 С 12 20 км н/о +0.7 -3.2 75 -8 -8 989.2 988.5
10 15.01 С 12 20 км н/о +0.7 -2.9 77 -8 -8 989.0 988.3 0.6
12 15.01 С 9 20 км {снег, метель} 9 баллов +0.7 -3.2 75 -7 -7 989.6 988.9
13 15.01 С 9 12 км н/о +0.4 -1.6 86 -7 -7 990.1 989.4 0.4
14 15.01 С 11 8000 м н/о +0.4 -1.5 87 -8 -8 990.3 989.6 0.3
15 15.01 СЗ 10-13
{16}
20 км в посл. час ливневой снег 10/10 500 м
[Cb calv]
+1.0 -4.1 69 -7 -7 990.6 989.8 -2.1 +1.1 0.7
17 15.01 СЗ 8 20 км н/о +0.8 -4.0 70 -6 -6 990.7 990.0
16 15.01 СЗ 8 20 км н/о +0.8 -2.9 76 -6 -6 990.7 990.0
18 15.01 С 9 20 км слаб. ливневой снег 10// 600 м
[Cb cap]
+0.8 -3.6 72 -7 -7 990.7 990.0 -0.6 +1.1
19 15.01 СЗ 9 14 км н/о +0.7 -4.0 71 -7 -7 990.9 990.2
20 15.01 СЗ 9 20 км н/о +0.8 -3.4 73 -7 -7 991.2 990.5 0.2
21 15.01 СЗ 9-13
{13}
6000 м слаб. ливневой снег 10/10 720 м
[Cb cap]
+0.1 -3.2 78 -8 -8 991.6 990.9 -0.6 +1.1 0.5
23 15.01 С 10 20 км н/о +0.7 -4.5 68 -7 -7 992.4 991.7 0.3
22 15.01 СЗ 9 20 км н/о +0.8 -3.5 73 -7 -7 992.0 991.3 0.6
00 16.01 С 9 20 км в посл. час ливневой снег 10// 600 м
[Cb calv]
+0.4 -5.9 63 -7 -7 993.1 992.4
01 16.01 С 9 20 км н/о +0.5 -7.0 57 -7 -7 993.8 993.1
02 16.01 СЗ 7 20 км н/о +0.5 -6.8 58 -6 -6 994.6 993.8
03 16.01 СЗ 8-10
{13}
20 км {ливн. осадки} 10/10 500 м
[Cb calv]
+0.5 -6.7 58 -6 -6 995.3 994.6 -1.0 +1.1
05 16.01 С 8 20 км н/о +0.3 -7.3 57 -7 -7 996.5 995.8
04 16.01 СЗ 6 20 км н/о +0.3 -7.2 57 -6 -6 996.0 995.3
06 16.01 СЗ 5 20 км н/о +0.2 -7.8 55 -5 -5 997.0 996.3 -1.0 +0.9
07 16.01 С 6 20 км н/о +0.2 -6.2 62 -6 -6 997.3 996.6
08 16.01 СЗ 4 20 км н/о +0.6 -5.8 62 -4 -4 998.0 997.3
09 16.01 З 6
{8}
20 км в посл. час ливневой снег 9/6 870 м
[Cb calv Ac trans Ci fib]
+0.6 -5.1 66 -5 -5 998.3 997.6 -1.0 +0.8
11 16.01 З 4 20 км н/о +0.6 -5.6 63 -4 -4 998.3 997.5
10 16.01 З 5 20 км н/о +0.5 -4.9 67 -5 -5 998.6 997.9
12 16.01 ЮЗ 4 20 км {ливн. осадки} 8/8
[Sc Ci fib]
+0.2 -6.0 63 -5 -5 997.9 997.2
13 16.01 ЮЗ 4 20 км н/о +0.2 -5.6 65 -5 -5 997.7 997.0
14 16.01 ЮЗ 6 20 км н/о +0.3 -4.9 68 -6 -6 997.2 996.5
15 16.01 Ю 5
{9}
20 км 10/9 960 м
[Sc]
+0.5 -4.4 70 -5 -5 996.3 995.6 +0.1 +0.7
17 16.01 Ю 7 3600 м н/о -0.4 -2.3 87 -8 -8 993.3 992.6
16 16.01 Ю 7 20 км н/о +0.9 -3.7 71 -6 -6 994.8 994.1
18 16.01 Ю 8 2800 м снег 10// 300 м
[Frnb As op]
-0.9 -1.6 95 -9 -9 991.3 990.6 -0.9 +1.0 0.5
19 16.01 Ю 9 2400 м н/о -0.7 -1.3 96 -9 -9 989.2 988.5 0.4
20 16.01 Ю 8 3900 м н/о +0.2 -0.2 97 -7 -7 987.6 986.9 0.5
21 16.01 Ю 10-15
{16}
8000 м снег {метель} 10/10 90 м
[Frnb Ns]
+2.9 +2.5 97 -5 -5 985.9 985.2 -0.9 +2.9 1
23 16.01 ЮЗ 11 18 км н/о +3.8 +3.1 95 -4 -4 983.8 983.1
22 16.01 ЮЗ 10 11 км н/о +3.5 +3.0 97 -4 -4 984.9 984.2
00 17.01 ЮЗ 11 15 км н/о +3.9 +3.1 95 -3 -3 983.1 982.4
01 17.01 ЮЗ 11 5000 м н/о +3.8 +3.2 96 -4 -4 982.2 981.5 2
02 17.01 ЮЗ 13 7000 м н/о +4.1 +3.4 95 -4 -4 981.5 980.8 1
03 17.01 ЮЗ 9-14
{18}
14 км дождь 10/10 210 м
[Frnb Ns]
+4.2 +3.5 95 -2 -2 981.0 980.3 -0.9 +4.4 4
05 17.01 ЮЗ 8 12 км н/о +4.0 +3.3 95 -2 -2 979.9 979.2 0.5
04 17.01 ЮЗ 9 9000 м н/о +4.2 +3.4 95 -2 -2 980.5 979.8
06 17.01 ЮЗ 6 10 км дождь 10// 300 м
[Frnb As op]
+4.0 +3.2 95 -2 -2 979.4 978.7 -0.9 +4.4 0.6
07 17.01 ЮЗ 7 17 км н/о +4.0 +3.1 94 -2 -2 979.2 978.5 0.4
08 17.01 З 8 7000 м н/о +3.3 +2.4 94 -3 -3 979.6 978.9 0.9
09 17.01 СЗ 7-10
{12}
20 км в посл. час дождь 10/9 240 м
[Sc Ac As]
+1.9 +0.5 90 -5 -5 980.3 979.6 +1.9 +4.4 1
11 17.01 СЗ 7 7000 м н/о +0.6 -0.9 90 -6 -6 982.2 981.5
10 17.01 СЗ 8 20 км н/о +1.0 -0.4 90 -6 -6 981.4 980.7
12 17.01 СЗ 10 20 км в посл. час снег {дождь} 10// 300 м
[Sc Ac As]
+1.1 -1.1 85 -7 -7 983.0 982.3
13 17.01 СЗ 9 20 км н/о +0.5 -2.0 83 -7 -7 984.0 983.3
14 17.01 СЗ 10 7000 м н/о -0.3 -2.5 85 -9 -9 985.2 984.5
15 17.01 СЗ 9-12
{15}
20 км слаб. снег 10/10 630 м
[Frnb Ns]
-0.4 -3.9 77 -8 -8 987.0 986.3 -0.7 +4.4
17 17.01 С 11 20 км н/о -0.8 -4.8 74 -9 -9 989.3 988.6
16 17.01 СЗ 9 20 км н/о -0.4 -4.0 77 -8 -8 988.0 987.2
18 17.01 С 12 20 км слаб. снег 10// 1000 м
[Frnb As op]
-1.0 -5.3 73 -10 -10 990.1 989.4 -1.1 +4.1 0.3
19 17.01 С 9 20 км н/о -0.6 -4.9 73 -8 -8 991.4 990.7
20 17.01 С 10 20 км н/о -1.0 -6.3 67 -9 -9 992.7 991.9
21 17.01 С 11-13
{14}
20 км в посл. час снег 8/6 930 м
[Sc Ac trans Ci fib]
-1.3 -6.6 67 -10 -10 993.6 992.8 -1.3 +1.9
23 17.01 С 5 20 км н/о -1.5 -7.1 66 -8 -8 995.4 994.7
22 17.01 С 9 20 км н/о -1.4 -7.1 65 -9 -9 994.7 994.0
00 18.01 20 км в посл. час снег н/о -2.8 -4.7 87 995.8 995.1
01 18.01 СЗ 5 12 км н/о -2.3 -3.7 90 -9 -9 996.2 995.5 0.2
02 18.01 СЗ 3 20 км н/о -2.1 -4.6 83 -7 -7 996.5 995.8
03 18.01 СЗ 7-10
{11}
20 км {снег} 9/9 1000 м
[Sc]
-1.0 -6.8 65 -8 -8 997.0 996.3 -2.8 -0.3 0.2
05 18.01 СЗ 7 20 км н/о -1.4 -7.0 66 -8 -8 997.8 997.1
04 18.01 СЗ 6 20 км н/о -1.2 -6.3 68 -8 -8 997.5 996.7
06 18.01 СЗ 6 20 км слаб. снег 9 баллов -1.3 -6.5 68 -8 -8 998.3 997.5 -2.8 -0.5 1
07 18.01 СЗ 6 20 км н/о -0.8 -6.0 68 -7 -7 998.6 997.9
08 18.01 н/о
09 18.01 СЗ 6-8
{11}
20 км {снег} 8/8 800 м
[Sc]
-0.7 -5.7 69 -7 -7 999.9 999.2 -2.8 -0.5
11 18.01 СЗ 9 13 км н/о -0.3 -4.1 75 -8 -8 1000.4 999.7
10 18.01 СЗ 8 20 км н/о 0.0 -3.7 76 -7 -7 1000.0 999.2
12 18.01 З 8 20 км {снег} 6/4 300 м
[Sc Ac trans Ci fib]
-0.1 -4.2 74 -7 -7 1000.4 999.7
13 18.01 СЗ 10 20 км н/о -0.1 -4.3 73 -8 -8 1000.8 1000.1
14 18.01 СЗ 9 20 км н/о +0.1 -4.2 73 -7 -7 1001.2 1000.5
15 18.01 СЗ 10-14
{14}
20 км 9/9 720 м
[Sc]
-0.2 -4.3 74 -8 -8 1001.8 1001.1 -1.5 +0.2
17 18.01 СЗ 9 20 км н/о +0.2 -4.0 73 -7 -7 1002.7 1002.0
16 18.01 СЗ 9 20 км н/о +0.2 -3.9 74 -7 -7 1002.3 1001.6
18 18.01 СЗ 9 20 км слаб. снег 10// 1000 м
[Sc]
+0.1 -4.3 72 -7 -7 1003.1 1002.4 -1.5 +0.3
19 18.01 СЗ 9 20 км н/о +0.2 -4.0 73 -7 -7 1003.7 1002.9
20 18.01 СЗ 9 20 км н/о +0.2 -3.6 76 -7 -7 1004.3 1003.6
21 18.01 СЗ 10-13
{14}
20 км слаб. снег 10/9 840 м
[Sc]
+0.3 -3.3 77 -8 -8 1004.8 1004.1 -0.8 +0.4
23 18.01 СЗ 10 20 км н/о +0.1 -4.1 73 -8 -8 1006.1 1005.4
22 18.01 СЗ 9 20 км н/о +0.5 -4.2 71 -7 -7 1005.3 1004.6
00 19.01 20 км {снег} н/о +0.1 -4.1 73 -7 -7 1006.8 1006.1
01 19.01 СЗ 7 20 км н/о +0.1 -4.8 70 -7 -7 1007.4 1006.6
02 19.01 СЗ 7 20 км н/о -0.1 -4.5 72 -7 -7 1007.8 1007.1
03 19.01 СЗ 7-10
{11}
20 км 8/8 800 м
[Sc]
-0.2 -5.0 70 -7 -7 1008.2 1007.4 -0.3 +0.6
05 19.01 СЗ 6 20 км н/о -0.1 -5.0 70 -6 -6 1008.8 1008.1
04 19.01 СЗ 7 9000 м н/о -0.3 -4.8 72 -7 -7 1008.5 1007.7
06 19.01 20 км н/о -0.3 -4.5 73 -7 -7 1009.0 1008.2 -0.4 +0.6
07 19.01 СЗ 7 20 км н/о -0.2 -3.9 76 -7 -7 1009.4 1008.7
08 19.01 н/о
09 19.01 З 6-9
{10}
20 км 10/3 500 м
[Sc Ac trans Ci]
+0.4 -3.7 74 -6 -6 1010.1 1009.3 -0.5 +0.6

 

Местоположение метеостанции Вилсанди (Эстония): широта 58.38 долгота 21.82 высота над уровнем моря 6 м.

В архиве по умолчанию представлена погода в Вилсанди за последнюю неделю. Архивные данные за месяц целиком и за предыдущие месяцы, начиная с января 2011 года, Вы можете получить, выбрав интересующий диапазон дат из раскрывающегося списка и нажав кнопку "Ввод!".


*Определитесь, кто Вы:
робот инопланетянин человек

Внимание! Время в таблицах - всемирное. Для получения местного времени необходимо прибавить поправку, которая равна 2 ч.

Смотрите также архив погоды в соседних городах и на ближайших метеорологических станциях:

Погода в Сырве (Эстония) (53 км)
Погода в Ристне (Эстония) (62 км)
Погода в Колке (Латвия) (84 км)
Погода в Виртсу (Эстония) (101 км)
Погода на Рухну (Эстония) (104 км)
Погода в Вентспилсе (Латвия) (110 км)
Погода на Кихну (Эстония) (130 км)
Погода в Нигуле (Эстония) (132 км)
Погода в Мерсрагсе (Латвия) (138 км)
Погода в Стенде (Латвия) (140 км)

Пояснения к столбцам:

Ветер - указаны скорость ветра в м/с - средняя за 10 мин, порывы в срок и между сроками (в фигурных скобках) и направление, откуда дует ветер: С - северный, СВ - северо-восточный, В - восточный, ЮВ - юго-восточный, Ю - южный, ЮЗ - юго-западный, З - западный, СЗ - северо-западный.
Видимость - горизонтальная дальность видимости в метрах или километрах. При видимости от 1 до 10 км при отсутствии осадков обычно наблюдается дымка, при ухудшении видимости до 1 км и менее - туман. В сухую погоду видимость может ухудшаться дымом, пылью или мглою.
Явления - указаны атмосферные явления, наблюдавшиеся в срок или в последний час перед сроком; фигурными скобками обозначены явления, наблюдавшиеся между сроками (за 1-3 часа до срока); квадратными скобками обозначены град или гололедные отложения с указанием их диаметра в мм.
Облачность - указаны через наклонную черту общая и нижняя облачность в баллах и высота нижней границы облаков в метрах; квадратными скобками обозначены формы облаков: Ci - перистые, Cs - перисто-слоистые, Cc - перисто-кучевые, Ac - высококучевые, As - высокослоистые, Sc - слоисто-кучевые, Ns - слоисто-дождевые, Cu - кучевые, Cb - кучево-дождевые. Подробнее классификацию облаков см. в Атласе облаков (PDF).
T - Температура воздуха - температура, измеренная на высоте 2 м над землей.
Td - Температура точки росы - температура, при понижении до которой содержащийся в воздухе водяной пар достигнет насыщения.
f - Относительная влажность воздуха - влажноcть воздуха, измеренная на высоте 2 м над землей.
Te - Эффективная температура - температура, которую ощущает одетый по сезону человек в тени. Характеристика душности погоды. При расчете учитывается влияние влажности воздуха и скорости ветра на теплоощущения человека.
Tes - Эффективная температура на солнце - температура, которую ощущает человек, с поправкой на солнечный нагрев. Характеристика знойности погоды. Зависит от высоты солнца над горизонтом, облачности и скорости ветра. Ночью, в пасмурную погоду, а также при ветре 12 м/с и более поправка равна нулю.
P - Атмосферное давление - приведенное к уровню моря атмосферное давление.
Po - Атмосферное давление - измеренное на уровне метеостанции атмосферное давление.
Tmin - Минимальная температура - минимум температуры воздуха на высоте 2 м над землей.
Tmax - Максимальная температура - максимум температуры воздуха на высоте 2 м над землей.
R - Количество осадков - Количество выпавших осадков за период времени, мм. При наведении курсора мыши на число - период времени, за который выпало указанное количество осадков.
R24 - Количество осадков - Количество выпавших осадков за 24 часа, мм.
S - Снежный покров - Высота снежного покрова, см. При наведении курсора мыши на число - состояние снежного покрова и степень покрытия местности в баллах.